Theta_e
345 349 352 349 365 357 356 357 353 355 356 350 348 349 350 353 355 360 349 349 349 348 349 348 348 348 348 347 348 346 349 352 351 353 352 352 349 348 346 344 345 350 351 352 353 353 353 353 352
350 352 350 351 361 356 355 352 354 354 353 351 349 350 351 356 350 351 349 348 348 349 349 347 348 348 347 347 346 347 348 347 349 349 351 352 348 348 351 345 344 353 353 353 354 353 353 353 351
352 352 355 358 356 360 358 353 353 353 350 350 351 348 350 354 349 349 348 348 348 349 350 345 346 347 348 346 347 347 348 348 347 347 347 347 350 350 346 347 352 353 353 354 353 352 351 351 348
353 347 351 361 356 356 354 354 352 352 349 348 349 353 350 347 348 348 347 346 345 344 347 344 345 346 346 346 347 345 347 346 348 348 348 346 348 346 342 350 352 353 353 351 351 350 347 347 346
345 345 354 356 356 353 350 352 351 351 351 350 347 352 352 347 347 347 347 346 347 347 345 344 345 342 345 346 345 345 346 342 344 345 347 345 344 343 347 353 354 353 352 349 345 342 343 343 343
349 347 354 355 355 352 351 351 351 351 350 348 348 349 352 348 347 346 346 347 347 348 348 347 342 342 343 344 346 346 342 342 342 345 342 345 345 346 353 352 352 352 351 346 343 340 340 341 341
351 352 354 355 356 356 355 351 350 348 345 348 345 350 351 349 347 345 345 345 346 348 349 348 346 342 343 344 345 342 343 343 343 339 344 343 347 350 353 352 354 352 351 349 344 342 341 340 337
350 350 353 353 357 356 351 350 348 345 349 345 345 351 354 350 344 344 344 345 345 346 347 347 347 345 341 342 345 345 343 345 342 343 346 350 353 354 354 350 352 353 351 346 344 342 342 338 338
347 352 355 352 352 356 349 350 347 344 347 346 347 347 347 349 348 347 347 348 348 347 347 347 347 343 342 344 344 345 343 340 343 345 346 350 352 351 348 350 350 352 345 343 343 341 339 338 341
350 354 355 352 349 351 350 350 348 347 348 348 349 347 348 348 348 347 347 347 346 346 346 347 346 344 341 341 341 339 336 340 344 348 345 350 350 350 347 348 348 344 341 340 340 339 337 341 345
350 355 352 353 350 348 348 350 349 347 348 346 350 350 348 348 348 346 346 345 344 345 346 346 346 343 341 339 340 337 336 336 342 348 346 349 349 346 345 346 346 346 340 345 344 350 350 350 351
353 354 354 352 351 350 349 348 350 347 348 343 346 347 347 346 345 344 344 343 342 343 344 344 345 345 345 341 338 337 342 340 346 342 348 347 347 347 345 345 345 344 343 348 351 350 353 354 352
352 354 353 352 350 349 349 350 351 348 345 343 345 345 345 344 343 342 342 342 341 342 343 343 344 345 345 344 341 342 344 345 343 346 348 346 344 344 343 344 345 346 348 349 352 352 353 352 350
351 352 351 350 351 350 350 349 349 348 344 345 345 345 344 343 342 342 342 341 340 341 342 343 344 344 344 343 342 345 344 345 345 346 346 350 347 349 346 347 345 348 347 350 352 354 354 351 348
350 353 351 351 348 351 348 352 351 348 346 346 344 345 344 344 343 341 341 341 341 342 343 343 344 343 342 342 343 345 344 343 346 345 349 351 351 352 349 348 346 349 350 352 355 352 353 352 351
350 352 351 350 350 350 348 355 348 348 348 347 344 344 345 345 343 342 341 341 342 343 341 341 339 342 340 339 344 342 344 345 346 346 348 352 352 351 350 348 347 350 355 353 352 350 350 353 353
346 345 345 351 348 349 349 350 345 344 348 347 345 345 345 345 345 343 341 341 341 344 341 337 339 342 341 342 340 344 347 347 347 347 347 351 350 350 349 346 349 354 353 353 352 352 353 352 350
338 337 338 344 351 351 350 349 346 346 348 347 345 346 346 346 345 344 342 341 340 343 342 340 340 340 340 337 345 340 344 347 347 347 346 349 349 348 348 349 350 353 351 350 351 353 351 352 351
335 337 339 341 347 354 354 350 347 345 347 348 346 346 346 346 344 344 343 342 339 341 343 342 339 337 340 341 344 342 340 345 347 347 349 350 348 345 349 350 351 351 352 353 353 351 349 346 348
333 334 337 344 349 353 354 356 351 349 348 348 347 346 346 346 346 345 344 343 341 338 340 341 341 341 342 343 345 346 344 347 346 347 349 349 349 347 350 353 352 353 350 353 353 352 348 347 350
330 331 335 342 351 353 356 359 354 350 348 347 347 346 346 346 346 347 345 343 343 341 339 339 341 341 341 345 348 348 349 350 348 349 348 348 349 348 351 353 352 352 351 350 352 351 352 348 349
331 334 339 344 350 351 351 352 353 350 352 350 348 348 346 346 346 346 346 344 343 343 343 340 340 340 341 343 344 347 346 346 346 347 347 349 350 349 350 351 353 354 349 350 349 349 352 354 348
333 337 339 344 350 348 353 350 350 349 351 353 350 348 347 345 345 346 345 345 343 344 344 344 343 342 341 342 344 347 348 346 347 346 350 349 352 352 351 352 353 353 351 351 352 352 353 352 351
334 341 345 348 344 345 340 344 343 345 346 347 350 349 347 345 345 346 344 345 345 344 345 346 346 346 345 345 346 348 346 347 346 347 348 348 348 350 352 352 354 353 353 353 352 354 352 354 353
339 337 336 338 342 339 344 345 342 339 343 345 346 348 348 347 346 347 347 346 346 345 345 345 348 350 348 347 347 347 349 349 348 349 345 347 347 347 347 352 353 350 353 354 353 355 352 354 352
338 334 334 333 333 335 345 342 340 339 343 344 344 345 347 347 346 346 347 346 346 345 346 346 347 350 350 349 349 349 349 348 347 348 345 348 345 346 347 351 352 352 351 354 354 353 352 352 354
331 337 331 331 331 333 333 336 337 341 347 346 344 345 345 347 346 346 347 346 346 346 346 346 347 350 350 350 350 351 351 349 347 347 348 347 347 347 352 350 353 352 354 355 354 353 353 354 354
329 331 333 331 333 336 334 336 337 337 346 344 342 344 347 347 347 347 347 347 347 346 348 348 348 350 350 349 350 350 350 351 349 349 350 348 347 350 351 351 350 350 352 352 355 353 353 353 352
328 328 329 328 330 333 335 334 335 335 342 344 342 342 348 348 348 348 347 347 347 347 347 349 349 349 350 349 348 348 349 350 351 350 350 351 350 349 350 351 350 350 350 350 351 351 353 354 354
329 330 329 332 333 334 334 334 334 334 342 344 343 343 346 349 349 349 349 348 348 349 348 349 350 350 350 349 350 350 349 349 349 351 350 350 351 351 350 350 351 350 350 349 351 351 351 353 353
Wind_Speed
6 6 3 4 4 5 7 5 5 7 4 3 7 1 2 5 5 2 4 8 13 16 15 15 13 12 13 11 11 10 12 12 12 10 10 10 10 10 12 12 12 10 12 13 12 12 11 12 12
5 3 4 3 5 4 8 5 8 5 7 9 6 4 2 5 5 8 10 12 13 13 12 13 12 11 12 11 12 11 9 10 10 10 10 11 12 11 12 13 12 12 11 13 12 11 11 10 10
3 3 4 4 3 3 4 5 8 11 8 4 3 2 2 4 4 10 12 16 14 12 10 12 9 10 10 9 10 9 10 10 11 11 10 11 11 13 12 12 11 12 12 13 12 10 9 10 10
3 4 4 4 2 5 6 8 8 8 5 2 2 6 6 5 7 7 17 16 14 14 10 11 9 7 7 8 8 8 8 7 9 10 10 10 12 14 12 12 12 12 12 11 11 10 9 9 7
3 3 4 5 4 4 5 8 6 3 4 4 2 4 4 6 7 16 17 16 17 14 11 14 9 10 6 3 3 4 6 6 8 8 9 11 13 15 13 13 13 12 11 11 9 9 7 6 4
3 3 6 4 2 2 3 8 3 3 4 4 2 4 6 8 11 17 16 15 14 13 14 12 12 9 8 7 4 7 5 5 9 11 11 12 13 14 13 13 12 11 10 9 8 7 4 3 3
5 4 3 4 5 8 7 5 2 3 4 4 3 2 5 9 14 16 15 13 12 12 11 12 12 12 10 10 5 7 7 6 10 11 12 14 14 13 12 12 11 9 8 6 5 4 2 1 1
3 3 3 1 2 4 6 4 1 0 5 7 1 3 7 14 17 16 13 12 10 9 9 9 9 8 8 9 9 10 9 10 10 11 13 13 13 13 12 11 9 7 6 5 3 2 0 1 2
3 4 3 2 3 6 1 4 3 0 7 2 2 1 13 19 17 15 13 12 11 10 9 8 7 8 9 13 17 13 10 15 10 10 12 12 11 11 11 9 8 6 5 3 2 1 0 1 3
4 3 3 2 2 1 4 3 4 5 6 5 8 8 18 18 16 14 12 11 10 10 9 8 8 9 11 12 15 14 15 13 9 7 10 10 10 9 9 8 8 6 4 2 1 0 1 2 3
2 5 5 2 2 4 1 1 3 6 4 4 10 15 16 17 14 13 12 10 10 9 10 9 10 10 12 15 14 19 16 16 4 6 10 8 8 8 8 6 5 4 3 2 2 2 1 2 4
5 3 6 5 4 3 8 1 3 6 5 5 13 15 15 14 12 10 8 7 8 9 10 11 12 12 12 15 15 20 10 9 6 7 7 8 8 6 6 5 4 4 3 1 1 1 2 3 2
5 3 3 4 1 2 6 3 0 4 4 10 14 14 13 12 11 8 6 5 6 10 10 12 13 12 14 16 17 15 11 10 6 7 7 7 6 5 5 5 4 3 2 1 1 3 2 4 3
3 2 3 3 1 1 3 2 4 8 8 12 13 12 12 11 11 9 7 4 6 9 13 12 12 12 14 16 17 12 12 9 8 7 6 5 5 5 6 5 4 1 2 0 3 5 4 4 3
1 5 1 5 1 0 5 4 4 5 10 11 11 11 11 10 10 8 7 5 7 11 14 13 11 10 12 13 13 10 11 10 9 7 5 4 5 6 7 5 3 3 2 2 2 4 2 3 4
5 4 5 3 5 4 3 2 2 5 9 11 12 11 10 10 11 8 7 6 8 12 13 12 11 10 12 13 10 10 10 10 9 8 7 5 6 7 7 6 4 3 1 1 2 3 3 4 4
4 8 7 2 5 1 4 3 4 6 9 11 12 12 11 11 9 10 9 9 11 13 13 16 11 12 12 11 7 9 8 9 9 9 7 7 5 6 6 6 5 3 2 1 1 2 4 6 6
11 12 9 5 6 8 9 7 4 7 9 11 12 12 11 11 12 13 11 11 12 15 16 16 14 12 11 12 7 9 7 7 9 8 7 6 6 6 7 6 6 4 3 1 2 4 6 5 7
11 11 11 5 3 6 11 10 12 13 12 15 13 13 13 12 14 15 15 14 15 16 17 17 14 13 16 14 12 9 9 8 8 7 7 7 6 9 8 7 7 5 3 1 2 5 4 7 6
11 10 7 1 1 8 6 13 13 15 14 16 17 15 15 14 14 16 18 19 18 19 19 19 17 17 17 14 13 9 10 8 8 7 8 8 7 9 8 6 6 5 4 1 2 4 8 3 4
7 9 10 6 1 9 9 11 10 15 16 15 17 18 17 16 16 17 19 21 21 21 21 20 19 18 17 13 11 10 9 6 8 9 8 8 9 9 9 7 4 5 4 3 1 2 3 6 3
6 9 6 4 6 4 3 4 3 8 14 17 18 18 17 16 15 16 21 22 23 23 22 21 19 19 17 15 11 10 10 9 9 9 8 9 10 10 9 7 7 6 6 5 4 3 3 3 4
7 8 3 4 5 8 9 6 7 6 9 16 21 21 21 19 17 18 20 24 25 24 24 23 22 20 19 18 16 14 14 11 7 10 7 9 11 10 9 7 8 8 7 7 6 4 4 3 3
4 5 3 5 5 8 7 6 1 3 1 3 16 21 21 20 19 18 23 22 23 25 24 23 23 23 22 20 19 17 15 14 11 11 11 11 13 13 11 9 9 9 7 7 7 6 6 5 4
9 11 9 5 6 4 5 7 5 6 5 5 5 15 20 20 18 18 19 22 23 24 25 24 25 23 24 23 20 20 18 16 14 11 14 9 12 13 12 11 10 10 11 9 8 7 6 8 7
13 13 9 6 9 4 5 5 4 6 2 5 7 9 14 19 19 19 19 24 25 26 25 25 25 24 24 24 23 21 20 17 17 15 15 13 14 12 11 12 13 14 11 10 10 10 8 9 9
14 9 15 12 9 9 7 5 10 1 1 6 5 6 9 15 20 19 19 23 25 26 26 25 24 23 23 25 23 21 21 20 18 16 15 15 14 12 9 11 12 12 12 12 11 11 9 8 9
16 7 8 11 10 12 6 5 8 5 4 7 7 7 8 11 16 17 17 21 23 24 24 24 23 22 22 22 23 22 21 20 21 18 18 15 14 14 11 10 9 9 10 11 11 11 10 10 9
8 12 13 13 9 11 12 4 6 2 5 9 8 8 11 12 15 15 15 20 22 21 22 23 23 21 20 21 21 22 21 20 20 20 19 17 16 16 16 14 12 11 11 12 13 13 12 11 10
10 14 13 10 10 7 8 11 5 1 3 8 10 10 11 12 14 14 14 17 19 20 20 21 21 21 21 19 21 21 21 19 20 21 21 20 19 17 17 17 16 14 12 12 12 12 13 12 13
Wind_Direction
150 162 209 241 237 235 92 89 120 107 106 72 66 0 45 345 2 11 138 138 145 149 150 152 150 144 138 139 134 137 143 144 145 143 141 135 122 117 108 110 109 111 112 119 119 112 112 114 115
169 195 233 260 252 147 103 125 99 61 102 135 132 121 152 87 66 107 139 135 137 140 151 153 154 151 147 151 144 152 148 149 149 148 150 143 142 128 119 124 125 120 121 117 112 111 113 112 111
176 265 265 271 240 79 111 108 105 114 121 153 121 27 50 57 71 132 126 140 138 132 147 155 155 163 158 163 157 163 160 164 164 163 151 147 138 136 124 122 126 125 125 119 115 114 113 110 109
244 206 219 266 170 83 106 117 126 132 122 82 115 98 98 43 124 144 144 143 140 147 154 148 156 150 167 173 175 176 171 167 172 158 156 140 135 135 132 137 130 124 122 119 116 119 120 112 108
255 249 258 238 127 109 102 114 157 121 94 125 283 103 87 110 118 139 143 147 146 153 146 148 141 148 145 152 175 184 173 162 186 168 151 144 141 143 144 144 134 129 128 127 129 124 122 121 120
243 282 248 227 150 135 135 151 148 97 97 110 149 124 102 129 138 146 146 143 149 150 149 146 169 163 153 150 153 132 125 199 173 151 140 148 146 148 147 140 133 138 136 129 125 122 127 144 147
317 300 339 120 158 121 130 151 197 93 114 92 119 94 119 144 143 150 146 140 146 143 147 151 148 149 149 135 128 175 152 159 150 145 148 145 146 146 140 135 139 137 135 132 119 116 134 165 193
298 276 175 16 97 91 128 150 102 354 81 116 359 124 155 145 150 154 156 155 155 156 157 157 157 145 154 141 132 141 147 140 128 147 140 137 139 141 143 149 143 148 149 146 134 128 129 271 255
289 261 172 64 283 114 177 175 113 294 136 85 58 72 120 146 152 150 155 157 159 157 162 166 165 161 138 137 141 133 149 135 125 129 135 132 139 139 152 161 154 161 163 164 154 132 144 276 336
317 292 21 14 320 100 125 235 191 188 151 118 109 116 135 150 158 162 170 169 171 166 164 161 153 142 157 167 155 154 157 163 131 119 138 141 142 156 156 169 168 169 170 170 131 102 318 338 299
322 335 319 118 302 284 336 63 263 238 174 114 140 145 152 154 170 171 175 174 177 174 166 164 158 155 149 152 165 171 172 170 183 145 142 150 151 157 162 162 165 167 175 166 57 346 305 319 313
300 355 329 10 323 233 240 289 242 237 41 100 136 150 155 160 168 166 168 171 175 187 178 170 159 157 162 162 167 164 179 185 173 163 146 154 165 169 158 164 161 172 166 139 72 354 339 330 317
321 1 329 12 309 143 247 217 91 181 98 115 135 152 157 159 162 149 150 162 194 194 182 184 161 156 155 160 171 175 175 177 164 155 162 154 158 161 153 154 151 177 190 124 3 338 347 339 327
0 0 327 102 343 75 284 231 234 134 139 134 150 159 160 159 169 156 161 172 194 196 178 188 154 151 157 161 161 172 171 165 161 157 158 165 162 162 153 154 146 180 180 177 341 328 319 335 352
242 300 215 140 197 7 319 207 134 146 170 152 166 164 156 162 165 179 159 162 180 180 163 157 146 148 152 161 166 167 172 165 160 164 169 168 163 161 157 159 150 151 181 28 336 340 311 333 353
283 225 5 124 193 141 251 207 166 174 191 179 177 169 170 166 172 171 156 147 163 157 167 153 157 157 158 169 169 177 174 167 168 170 168 157 154 156 159 167 154 171 114 92 54 24 353 346 346
181 342 14 149 216 211 224 271 195 222 203 189 188 176 178 175 182 171 164 154 161 168 167 175 169 171 166 171 186 183 178 181 182 181 175 171 169 171 163 169 160 156 155 120 4 1 352 339 346
330 333 337 334 162 222 220 218 192 199 195 205 191 192 185 186 183 178 174 160 158 171 176 182 180 176 178 175 185 198 198 198 196 189 187 185 187 176 166 164 159 155 178 181 7 341 344 329 340
302 311 319 324 143 223 235 245 218 229 214 207 207 203 199 197 175 174 177 174 164 169 178 184 187 191 175 184 185 204 207 205 197 195 189 189 179 158 163 161 155 155 169 49 335 320 307 319 342
304 306 333 94 256 220 267 257 239 225 227 214 211 208 208 197 173 180 183 183 184 176 183 187 190 186 189 188 184 189 207 201 192 193 183 181 182 176 169 165 167 172 170 127 8 348 319 307 346
310 345 344 316 166 233 287 258 228 224 214 217 217 217 212 204 192 181 189 188 191 186 187 193 194 196 194 190 183 190 196 193 186 190 194 197 193 193 184 181 182 186 198 207 273 310 325 324 309
301 348 316 286 269 3 249 347 149 187 206 215 218 214 217 202 204 189 188 193 192 192 193 193 196 198 199 202 204 205 206 201 201 200 192 182 192 200 206 199 204 210 232 225 229 252 284 286 303
360 317 324 283 272 291 157 260 114 171 206 208 213 212 209 207 197 199 195 192 197 191 191 193 195 202 204 204 209 209 216 208 214 223 186 201 193 202 209 207 209 217 242 223 222 222 234 228 260
308 250 227 213 258 242 60 304 187 96 189 211 199 215 212 207 199 193 198 194 197 195 192 190 192 200 202 204 209 212 215 216 220 216 211 207 203 207 213 215 220 222 235 232 234 234 226 218 225
228 256 263 242 206 337 58 289 333 349 224 234 221 202 206 208 202 191 191 192 195 197 194 195 194 197 201 202 209 212 214 215 219 221 220 213 208 212 216 216 223 229 233 239 239 242 240 212 214
202 270 290 300 292 347 144 256 38 347 280 243 258 241 194 199 202 193 193 190 195 200 196 197 196 198 201 203 205 209 212 214 219 219 225 218 237 230 227 229 238 230 230 236 238 243 242 223 221
232 241 263 289 244 260 271 280 254 97 27 152 165 187 205 197 193 197 193 195 197 195 200 201 200 200 202 203 204 206 211 213 216 223 219 229 236 242 232 244 242 230 232 231 234 242 244 230 231
255 305 235 222 267 270 252 263 270 333 154 165 164 175 178 189 192 195 194 197 197 200 198 201 202 201 202 201 204 207 212 213 217 219 224 229 233 228 222 229 235 248 254 245 234 239 240 237 230
179 227 232 277 295 297 283 254 75 327 200 190 162 161 166 173 179 186 192 195 196 201 200 202 205 204 204 203 206 211 213 216 218 220 224 229 233 230 230 233 241 244 247 253 253 255 258 242 240
274 252 239 232 234 234 293 291 120 264 226 202 173 166 162 168 173 178 182 186 193 200 202 202 203 204 204 205 204 207 214 217 218 223 224 227 231 234 232 232 239 239 239 236 245 254 255 249 254